DW2213 Weather Reports


time (UTC)temp
F
wind
direction
speed
knots
gust
knots
rain 1hr
in
rain 24hr
in
rain mn
in
humidity
%
barometer
mb
20260901123305 85 138 0.9 2.6 0.00 0.00 0.00 67 1014.5
20260901122805 86 135 0.9 4.3 0.00 0.00 0.00 66 1014.4
20260901122306 86 147 0.9 2.6 0.00 0.00 0.00 67 1014.2
20260901121305 86 134 0.9 4.3 0.00 0.00 0.00 65 1014.5
20260901120805 86 150 0.9 4.3 0.00 0.00 0.00 64 1014.5
20260901120305 86 121 0.9 4.3 0.00 0.00 0.00 64 1014.6
20260901115805 86 145 0.9 5.2 0.00 0.00 0.00 64 1014.8
20260901115306 87 147 1.7 5.2 0.00 0.00 0.00 64 1014.9
20260901114805 87 149 0.9 4.3 0.00 0.00 0.00 64 1014.9
20260901114305 86 124 0.9 4.3 0.00 0.00 0.00 66 1014.7
20260901113805 86 129 1.7 4.3 0.00 0.00 0.00 66 1014.9
20260901112804 86 118 0.0 1.7 0.00 0.00 0.00 66 1015.2
20260901112306 86 118 0.0 2.6 0.00 0.00 0.00 66 1015.1
20260901111804 85 107 0.0 1.7 0.00 0.00 0.00 66 1015.1
20260901110804 86 144 0.9 1.7 0.00 0.00 0.00 65 1015.3
20260901110304 86 100 0.0 2.6 0.00 0.00 0.00 65 1015.4
20260901105305 87 117 0.9 4.3 0.00 0.00 0.00 63 1015.1
20260901104804 88 113 0.9 6.1 0.00 0.00 0.00 64 1014.9
20260901104305 87 143 0.9 5.2 0.00 0.00 0.00 66 1015.1
20260901103804 87 136 0.9 2.6 0.00 0.00 0.00 65 1015.0
20260901103305 87 150 1.7 7.8 0.00 0.00 0.00 65 1015.1
20260901102805 87 144 0.9 7.8 0.00 0.00 0.00 66 1015.2
20260901102306 86 139 2.6 5.2 0.00 0.00 0.00 66 1015.4
20260901101805 86 139 0.0 0.0 0.00 0.00 0.00 66 1015.4
20260901101305 86 153 0.0 4.3 0.00 0.00 0.00 67 1015.4
20260901100804 86 133 0.9 5.2 0.00 0.00 0.00 67 1015.5
20260901100305 87 127 1.7 6.1 0.00 0.00 0.00 65 1015.5
20260901095306 87 101 0.0 5.2 0.00 0.00 0.00 65 1015.4
20260901094805 87 157 1.7 6.1 0.00 0.00 0.00 67 1015.4
20260901093804 87 138 0.9 4.3 0.00 0.00 0.00 67 1015.3
20260901092805 87 135 2.6 6.1 0.00 0.00 0.00 68 1015.4
20260901092305 86 142 0.9 7.0 0.00 0.00 0.00 70 1015.3
20260901091805 86 153 0.9 4.3 0.00 0.00 0.00 70 1015.4
20260901090304 84 126 0.9 4.3 0.00 0.00 0.00 74 1015.3
20260901085805 84 140 1.7 4.3 0.00 0.00 0.00 74 1015.2
20260901085306 84 147 1.7 6.1 0.00 0.00 0.00 75 1015.3
20260901084804 83 138 0.9 4.3 0.00 0.00 0.00 77 1015.2
20260901084305 83 150 0.0 2.6 0.00 0.00 0.00 76 1015.2
20260901083305 83 133 0.9 5.2 0.00 0.00 0.00 78 1015.1
20260901082805 83 138 0.0 4.3 0.00 0.00 0.00 77 1015.0
20260901081804 83 128 0.9 4.3 0.00 0.00 0.00 77 1015.0
20260901081305 83 123 0.0 2.6 0.00 0.00 0.00 78 1015.0
20260901080805 83 114 0.9 4.3 0.00 0.00 0.00 77 1014.9
20260901075805 83 131 0.0 4.3 0.00 0.00 0.00 77 1014.6
20260901075307 83 144 0.9 4.3 0.00 0.00 0.00 77 1014.7
20260901074805 83 138 0.9 4.3 0.00 0.00 0.00 78 1014.6
20260901074305 83 122 0.0 1.7 0.00 0.00 0.00 79 1014.7
20260901073304 82 129 0.9 2.6 0.00 0.00 0.00 81 1014.8
20260901071804 81 139 0.0 1.7 0.00 0.00 0.00 84 1014.6
20260901071305 81 91 0.0 1.7 0.00 0.00 0.00 85 1014.6
20260901070805 80 82 0.0 0.0 0.00 0.00 0.00 85 1014.5
20260901070305 80 82 0.0 1.7 0.00 0.00 0.00 86 1014.3
20260901065805 80 80 0.0 0.0 0.00 0.00 0.00 86 1014.2
20260901065305 80 80 0.0 0.0 0.00 0.00 0.00 86 1014.1
20260901064804 80 80 0.0 0.9 0.00 0.00 0.00 87 1014.0
20260901064305 80 80 0.0 1.7 0.00 0.00 0.00 87 1014.1
20260901063805 79 77 0.0 1.7 0.00 0.00 0.00 87 1014.1
20260901063304 79 75 0.0 1.7 0.00 0.00 0.00 88 1014.2
20260901062805 79 66 0.0 2.6 0.00 0.00 0.00 88 1013.7
20260901062309 78 62 0.0 0.0 0.00 0.00 0.00 88 1013.7
20260901061804 78 63 0.0 0.0 0.00 0.00 0.00 88 1013.9
20260901061304 78 49 0.0 0.0 0.00 0.00 0.00 88 1014.1
20260901060804 78 49 0.0 0.0 0.00 0.00 0.00 88 1013.9
20260901060304 78 49 0.0 0.0 0.00 0.00 0.00 89 1013.9
20260901055805 77 49 0.0 0.0 0.00 0.00 0.00 89 1013.8
20260901055306 77 49 0.0 0.0 0.00 0.00 0.00 89 1013.9
20260901054804 77 49 0.0 0.0 0.00 0.00 0.00 89 1013.9
20260901053804 77 49 0.0 0.0 0.00 0.00 0.00 89 1013.8
20260901053304 77 49 0.0 0.0 0.00 0.00 0.00 89 1013.5
20260901052805 77 47 0.0 0.0 0.00 0.00 0.00 89 1013.5
20260901052307 77 47 0.0 0.0 0.00 0.00 0.00 89 1013.5
20260901051304 77 47 0.0 0.0 0.00 0.00 0.00 89 1013.6
20260901050804 77 47 0.0 0.0 0.00 0.00 0.00 89 1013.6
20260901050304 77 48 0.0 0.0 0.00 0.00 0.00 89 1013.4
20260901045804 77 46 0.0 0.0 0.00 0.00 0.00 89 1013.4
20260901044804 77 44 0.0 0.0 0.00 0.00 0.00 90 1013.2
20260901044304 77 47 0.0 0.9 0.00 0.00 0.00 90 1013.1
20260901043804 78 47 0.0 1.7 0.00 0.00 0.00 90 1013.0
20260901043304 78 37 0.0 0.0 0.00 0.00 0.00 90 1013.2
20260901042805 78 19 0.0 0.0 0.00 0.00 0.00 90 1013.2
20260901041804 78 31 0.0 0.0 0.00 0.00 0.00 90 1013.5
20260901041305 78 31 0.0 0.0 0.00 0.00 0.00 90 1013.6
20260901040804 78 31 0.0 0.0 0.00 0.00 0.00 90 1013.6
20260901040305 78 31 0.0 0.0 0.00 0.00 0.00 90 1013.7
20260901035805 78 31 0.0 0.0 0.00 0.00 0.00 90 1013.6
20260901035305 78 31 0.0 0.0 0.00 0.00 0.00 90 1013.6
20260901034804 78 31 0.0 0.0 0.00 0.00 0.00 90 1013.6
20260901034304 78 31 0.0 0.0 0.00 0.00 0.00 90 1013.6
20260901033804 78 31 0.0 0.0 0.00 0.00 0.00 90 1013.6
20260901032804 78 31 0.0 0.0 0.00 0.00 0.00 90 1013.6
20260901032306 78 31 0.0 0.0 0.00 0.00 0.00 90 1013.7
20260901031805 78 31 0.0 0.0 0.00 0.00 0.00 89 1013.8
20260901031304 78 31 0.0 0.0 0.00 0.00 0.00 89 1013.8
20260901030805 78 31 0.0 0.0 0.00 0.00 0.00 89 1013.8
20260901030304 78 31 0.0 0.0 0.00 0.00 0.00 89 1013.8
20260901025804 78 31 0.0 0.0 0.00 0.00 0.00 89 1013.7
20260901024304 78 31 0.0 0.0 0.00 0.00 0.00 89 1013.7
20260901023804 78 31 0.0 0.0 0.00 0.00 0.00 88 1013.7
20260901023304 78 31 0.0 0.0 0.00 0.00 0.00 88 1013.8
20260901022805 78 31 0.0 0.0 0.00 0.00 0.00 88 1013.9
20260901022306 79 31 0.0 0.0 0.00 0.00 0.00 88 1013.9
20260901021804 79 31 0.0 0.0 0.00 0.00 0.00 88 1014.0
20260901021304 79 31 0.0 0.0 0.00 0.00 0.00 88 1014.0
20260901020804 79 31 0.0 0.0 0.00 0.00 0.00 88 1014.0
20260901020304 79 31 0.0 0.0 0.00 0.00 0.00 88 1014.0
20260901015804 79 31 0.0 0.0 0.00 0.00 0.00 88 1014.0
20260901015305 79 31 0.0 0.0 0.00 0.00 0.00 88 1014.0
20260901014804 79 31 0.0 0.0 0.00 0.00 0.00 88 1014.1
20260901014304 79 31 0.0 0.0 0.00 0.00 0.00 88 1014.2
20260901013804 79 31 0.0 0.0 0.00 0.00 0.00 88 1014.2
20260901012306 79 31 0.0 0.0 0.00 0.00 0.00 88 1014.3
20260901011804 79 31 0.0 0.0 0.00 0.00 0.00 88 1014.3
20260901011304 79 31 0.0 0.0 0.00 0.00 0.00 87 1014.3
20260901010804 79 31 0.0 0.0 0.00 0.00 0.00 87 1014.5
20260901005307 79 31 0.0 0.0 0.00 0.00 0.00 87 1014.6
20260901004804 79 31 0.0 0.0 0.00 0.00 0.00 87 1014.6
20260901004304 79 31 0.0 0.0 0.00 0.00 0.00 87 1014.6
20260901003805 79 36 0.0 0.0 0.00 0.00 0.00 87 1014.7
20260901003304 79 44 0.9 1.7 0.00 0.00 0.00 87 1014.7
20260901002805 79 44 0.0 1.7 0.00 0.00 0.00 87 1014.6
20260901002305 79 44 0.0 0.9 0.00 0.00 0.00 87 1014.7
20260901001804 79 44 0.0 0.9 0.00 0.00 0.00 87 1014.7
20260901001304 79 44 0.0 0.9 0.00 0.00 0.00 87 1014.6
20260901000804 80 43 0.0 1.7 0.00 0.00 0.00 87 1014.6
20260901000304 80 347 0.0 0.9 0.00 0.00 0.00 87 1014.7
20260831235804 80 24 0.0 2.6 0.00 0.00 0.00 87 1014.7
20260831235306 80 34 0.0 0.0 0.00 0.00 0.00 87 1014.8
20260831234804 80 34 0.0 2.6 0.00 0.00 0.00 87 1014.8
20260831234305 80 27 0.0 1.7 0.00 0.00 0.00 87 1014.8
20260831233804 80 25 0.0 1.7 0.00 0.00 0.00 87 1014.8
20260831233305 80 0 0.0 2.6 0.00 0.00 0.00 87 1014.8
20260831232804 80 0 0.0 2.6 0.00 0.00 0.00 87 1014.8
20260831231304 80 19 0.0 2.6 0.00 0.00 0.00 86 1014.8
20260831230803 80 102 0.0 0.9 0.00 0.00 0.00 86 1014.8
20260831230304 80 102 0.0 0.9 0.00 0.00 0.00 86 1014.8
20260831225804 80 102 0.0 0.0 0.00 0.00 0.00 86 1014.8
20260831225306 80 102 0.0 0.9 0.00 0.00 0.00 86 1014.7
20260831224304 81 102 0.0 1.7 0.00 0.00 0.00 86 1014.8
20260831223804 81 102 0.0 0.9 0.00 0.00 0.00 85 1014.7
20260831223304 80 102 0.0 0.0 0.00 0.00 0.00 85 1014.7
20260831222804 80 102 0.0 0.0 0.00 0.00 0.00 85 1014.8
20260831221804 80 102 0.0 0.0 0.00 0.00 0.00 85 1014.7
20260831220819 80 102 0.0 1.7 0.00 0.00 0.00 85 1014.6
20260831220305 80 87 0.0 0.9 0.00 0.00 0.00 85 1014.5
20260831215804 80 86 0.0 0.0 0.00 0.00 0.00 85 1014.4
20260831215306 80 86 0.0 0.9 0.00 0.00 0.00 85 1014.4
20260831214304 81 86 0.0 0.9 0.00 0.00 0.00 85 1014.4
20260831213804 81 86 0.0 0.0 0.00 0.00 0.00 85 1014.4
20260831213304 81 86 0.0 0.0 0.00 0.00 0.00 85 1014.3
20260831212804 81 86 0.0 0.0 0.00 0.00 0.00 85 1014.2
20260831212306 81 86 0.0 0.9 0.00 0.00 0.00 85 1014.2
20260831211804 81 86 0.0 1.7 0.00 0.00 0.00 85 1014.2
20260831211304 81 86 0.0 1.7 0.00 0.00 0.00 85 1014.1
20260831210304 81 104 0.0 0.9 0.00 0.00 0.00 85 1014.1
20260831205804 81 104 0.0 1.7 0.00 0.00 0.00 85 1014.1
20260831205305 81 104 0.0 1.7 0.00 0.00 0.00 85 1014.1
20260831203803 81 107 0.0 1.7 0.00 0.00 0.00 84 1014.0
20260831203304 81 102 0.0 1.7 0.00 0.00 0.00 84 1013.9
20260831201804 81 132 0.0 1.7 0.00 0.00 0.00 83 1013.7
20260831201304 81 135 0.9 4.3 0.00 0.00 0.00 83 1013.7
20260831200803 81 78 0.0 1.7 0.00 0.00 0.00 83 1013.7
20260831200303 81 77 0.0 0.0 0.00 0.00 0.00 83 1013.7
20260831195804 81 77 0.0 1.7 0.00 0.00 0.00 83 1013.6
20260831195306 81 79 0.0 2.6 0.00 0.00 0.00 83 1013.5
20260831194803 81 85 0.0 1.7 0.00 0.00 0.00 82 1013.3
20260831194304 81 85 0.9 1.7 0.00 0.00 0.00 82 1013.2
20260831193804 81 9 0.0 0.9 0.00 0.00 0.00 82 1013.1
20260831193304 81 10 0.0 0.0 0.00 0.00 0.00 82 1012.9
20260831192804 81 9 0.9 2.6 0.00 0.00 0.00 82 1012.9
20260831192305 81 66 0.0 1.7 0.00 0.00 0.00 82 1012.8
20260831191303 81 63 0.0 0.9 0.00 0.00 0.00 82 1012.7
20260831190804 81 56 0.0 1.7 0.00 0.00 0.00 82 1012.6
20260831190304 81 77 0.9 6.1 0.00 0.00 0.00 81 1012.5
20260831185804 81 120 0.0 1.7 0.00 0.00 0.00 81 1012.5
20260831185306 81 121 0.0 0.9 0.00 0.00 0.00 81 1012.5
20260831184803 81 121 0.0 2.6 0.00 0.00 0.00 81 1012.5
20260831184304 81 332 0.0 2.6 0.00 0.00 0.00 81 1012.5
20260831183303 81 140 0.0 2.6 0.00 0.00 0.00 81 1012.3
20260831182804 81 131 0.0 0.9 0.00 0.00 0.00 80 1012.3
20260831182305 81 121 0.0 5.2 0.00 0.00 0.00 80 1012.3
20260831181804 81 136 0.0 1.7 0.00 0.00 0.00 80 1012.3
20260831181304 81 136 0.0 2.6 0.00 0.00 0.00 79 1012.3
20260831180804 82 145 0.9 2.6 0.00 0.00 0.00 79 1012.3
20260831180304 82 128 0.9 4.3 0.00 0.00 0.00 79 1012.2
20260831175803 82 112 0.9 5.2 0.00 0.00 0.00 78 1012.2
20260831174804 82 134 0.9 4.3 0.00 0.00 0.00 77 1012.2
20260831174304 82 133 0.9 4.3 0.00 0.00 0.00 76 1012.2
20260831172803 83 135 0.9 4.3 0.00 0.00 0.00 75 1012.0
20260831172306 83 117 0.0 4.3 0.00 0.00 0.00 74 1012.0
20260831171304 83 145 0.9 4.3 0.00 0.00 0.00 74 1011.9
20260831170305 84 130 0.9 4.3 0.00 0.00 0.00 72 1011.9
20260831165805 84 137 0.9 6.1 0.00 0.00 0.00 71 1011.9
20260831164805 85 147 1.7 4.3 0.00 0.00 0.00 69 1012.0
20260831164305 86 128 1.7 5.2 0.00 0.00 0.00 69 1012.0
20260831163805 86 138 1.7 5.2 0.00 0.00 0.00 68 1012.0
20260831162306 87 113 1.7 5.2 0.00 0.00 0.00 64 1012.2
20260831161305 88 132 0.9 4.3 0.00 0.00 0.00 56 1012.2
20260831160805 88 129 0.9 4.3 0.00 0.00 0.00 56 1012.2
20260831160305 89 151 1.7 4.3 0.00 0.00 0.00 54 1012.3
20260831155805 89 115 0.9 2.6 0.00 0.00 0.00 54 1012.3
20260831154805 88 144 1.7 4.3 0.00 0.00 0.00 55 1012.4
20260831154305 88 118 0.9 4.3 0.00 0.00 0.00 55 1012.5
20260831153805 88 142 1.7 7.0 0.00 0.00 0.00 56 1012.4
20260831152804 88 152 1.7 5.2 0.00 0.00 0.00 58 1012.5
20260831152306 88 145 1.7 4.3 0.00 0.00 0.00 59 1012.5
20260831151804 88 127 0.9 4.3 0.00 0.00 0.00 61 1012.5
20260831151305 88 144 0.9 2.6 0.00 0.00 0.00 63 1012.5
20260831150805 88 151 0.9 5.2 0.00 0.00 0.00 66 1012.6
20260831150305 87 153 0.0 4.3 0.00 0.00 0.00 67 1012.6
20260831145805 88 144 0.0 2.6 0.00 0.00 0.00 67 1012.5
20260831145306 88 127 0.9 4.3 0.00 0.00 0.00 67 1012.5
20260831144805 88 150 1.7 5.2 0.00 0.00 0.00 67 1012.6
20260831144304 88 165 1.7 4.3 0.00 0.00 0.00 67 1012.6
20260831143805 88 141 2.6 5.2 0.00 0.00 0.00 67 1012.6
20260831143305 88 140 1.7 5.2 0.00 0.00 0.00 67 1012.7
20260831142805 88 132 1.7 4.3 0.00 0.00 0.00 67 1012.7
20260831142306 88 133 1.7 4.3 0.00 0.00 0.00 67 1012.6
20260831141805 88 160 1.7 7.0 0.00 0.00 0.00 67 1012.6
20260831141305 87 186 1.7 5.2 0.00 0.00 0.00 69 1012.6
20260831140804 87 142 0.9 4.3 0.00 0.00 0.00 68 1012.7
20260831135805 88 147 0.0 6.1 0.00 0.00 0.00 67 1012.8
20260831135306 87 158 0.9 4.3 0.00 0.00 0.00 70 1012.7
20260831134805 87 119 0.9 4.3 0.00 0.00 0.00 69 1012.8
20260831134305 87 13 1.7 4.3 0.00 0.00 0.00 67 1012.8
20260831133805 88 74 0.9 2.6 0.00 0.00 0.00 65 1012.9
20260831133305 88 46 0.9 2.6 0.00 0.00 0.00 65 1012.9
20260831132805 88 342 0.9 2.6 0.00 0.00 0.00 66 1012.9
20260831132307 87 7 1.7 2.6 0.00 0.00 0.00 66 1012.8
20260831131805 88 1 1.7 5.2 0.00 0.00 0.00 65 1012.9
20260831131305 88 331 0.9 2.6 0.00 0.00 0.00 66 1012.9
20260831130805 88 88 0.9 4.3 0.00 0.00 0.00 66 1012.9
20260831130304 88 50 0.9 4.3 0.00 0.00 0.00 65 1012.9
20260831125805 87 50 0.0 2.6 0.00 0.00 0.00 67 1013.0
20260831125306 87 60 1.7 5.2 0.00 0.00 0.00 67 1013.1
20260831124804 87 53 1.7 5.2 0.00 0.00 0.00 66 1013.1
20260831124304 88 326 0.9 2.6 0.00 0.00 0.00 66 1013.2